Temp
16 16 17 17 17 18 18 19 19 20 20 20 20 21 21 22 23 24 25 26 26 26 26 26 26 26 26 26 25 25 26 26 26 25 26 25 25 24 24 24 24 23 22 22 21
16 16 17 17 17 17 18 18 19 19 20 20 20 21 21 22 22 24 26 26 26 26 26 26 26 27 26 25 25 26 26 27 27 27 27 25 25 25 25 24 24 21 21 21 20
15 15 16 17 17 17 18 18 19 19 20 20 20 20 21 21 23 25 25 26 26 26 25 26 26 26 27 26 26 26 27 27 28 27 26 26 25 24 25 24 24 23 19 19 19
15 15 15 16 17 17 18 18 19 19 20 20 20 20 20 21 24 24 24 25 27 26 25 26 26 26 27 27 26 27 27 27 27 26 26 26 26 25 25 25 24 24 23 20 18
14 15 15 15 16 17 18 18 18 19 20 20 20 20 20 20 23 24 24 25 26 26 25 26 26 25 27 26 26 28 28 27 27 26 26 26 26 26 25 24 25 21 20 20 19
14 14 15 15 16 16 17 18 18 19 20 20 20 20 19 20 24 24 24 25 26 26 26 26 26 26 26 26 26 27 27 27 27 26 27 27 26 25 24 23 22 20 20 19 19
13 14 14 15 15 16 16 18 18 19 19 19 19 19 19 23 24 24 24 24 25 25 26 26 26 26 25 26 25 27 29 29 27 27 27 26 26 26 23 22 21 20 20 19 19
13 14 14 15 15 16 16 17 18 19 19 19 19 19 21 23 23 24 23 24 24 24 25 26 26 26 25 25 26 27 28 28 28 26 26 28 28 27 22 22 22 21 20 19 19
13 13 14 15 15 16 16 17 18 18 18 18 18 18 21 23 24 24 24 24 24 24 25 25 25 25 26 27 28 28 27 27 28 27 27 27 27 24 23 23 22 21 21 20 19
13 13 14 15 15 15 16 16 17 18 17 17 17 17 22 23 23 24 24 24 24 24 24 24 25 27 26 28 27 26 27 27 27 28 27 27 26 23 23 23 23 22 21 20 19
13 13 14 15 15 15 15 16 16 16 17 19 20 21 22 22 23 24 25 24 24 24 26 24 27 27 27 27 27 27 26 27 28 28 28 27 27 25 23 23 23 22 21 20 19
13 13 14 14 15 15 16 16 17 17 18 20 20 20 22 22 22 23 24 25 25 25 24 26 27 27 26 26 27 27 27 27 28 28 27 25 26 25 24 24 23 23 21 21 20
12 13 14 14 15 16 16 16 16 17 17 18 19 20 22 22 23 23 24 24 25 25 25 27 28 26 27 27 27 28 27 27 27 28 25 25 26 25 25 23 23 22 22 21 21
12 13 14 14 15 16 16 16 17 17 20 21 20 21 22 23 24 24 24 25 24 25 25 27 26 27 27 27 27 27 27 27 28 27 27 26 27 25 25 25 24 23 22 21 20
13 13 14 14 15 15 16 16 18 17 22 21 20 20 21 23 24 23 24 25 25 25 25 26 26 27 27 27 27 28 27 27 27 27 27 26 26 29 23 26 26 24 22 22 21
13 14 15 15 15 15 15 16 17 20 21 22 21 22 22 23 24 23 24 25 24 25 25 26 25 27 28 28 27 28 27 26 25 27 27 27 26 29 29 28 25 25 23 23 21
14 14 15 15 16 16 16 16 20 21 22 22 23 22 24 24 24 25 25 25 25 25 25 25 26 26 27 27 26 27 28 27 27 27 27 24 24 28 29 27 26 26 24 23 21
15 15 15 15 16 16 16 18 20 21 21 22 22 23 24 24 24 24 24 25 23 25 24 25 25 26 27 28 28 27 29 28 26 27 27 23 26 29 27 24 24 24 24 24 22
15 15 15 15 15 16 16 20 21 20 21 22 23 23 23 24 25 25 25 25 26 25 26 25 25 25 26 28 29 26 27 27 26 22 26 27 26 27 26 25 24 24 24 23 23
15 15 14 15 15 16 19 17 19 19 20 22 23 23 24 24 25 24 24 25 25 25 26 25 25 26 27 27 26 28 26 27 26 26 26 27 25 27 28 28 25 25 24 24 23
15 15 15 15 15 16 19 18 18 19 20 22 22 23 23 24 25 24 25 24 25 24 25 25 25 26 25 27 28 26 27 25 26 26 27 27 28 28 27 27 27 25 24 24 23
15 17 14 15 16 12 19 17 17 20 20 22 21 22 23 23 23 24 25 26 25 24 25 26 26 25 27 27 26 27 28 28 28 26 24 25 28 28 25 25 25 26 24 23 23
15 14 14 15 18 18 17 18 18 20 21 22 22 22 22 23 23 24 24 23 22 25 25 24 26 25 26 27 24 27 27 27 26 26 26 27 29 26 24 24 23 24 24 23 24
15 17 14 15 14 17 18 19 19 19 20 21 22 22 23 23 22 23 24 23 21 25 23 25 25 26 26 27 28 27 26 25 27 27 27 27 29 30 29 26 24 23 22 23 23
14 15 14 18 17 17 17 18 19 20 20 20 21 21 22 22 23 24 22 23 22 19 22 27 26 26 27 27 26 28 27 25 26 28 27 29 27 30 26 24 24 23 22 22 22
12 13 13 15 14 16 14 18 19 20 20 21 21 21 21 22 23 24 23 23 24 21 23 22 26 23 26 26 26 27 28 27 27 26 26 26 27 26 22 20 21 22 22 21 22
12 12 12 14 16 17 18 18 19 19 19 19 20 21 21 20 19 18 19 18 21 22 23 23 24 23 26 25 24 25 27 28 28 27 28 27 28 22 24 23 21 21 21 22 22
Height
1511 1509 1508 1507 1506 1505 1504 1503 1502 1502 1502 1502 1502 1501 1501 1501 1501 1501 1501 1504 1504 1504 1505 1507 1506 1505 1503 1504 1502 1502 1504 1511 1511 1512 1508 1507 1510 1512 1514 1514 1517 1519 1519 1520 1524
1510 1508 1507 1505 1505 1504 1503 1502 1501 1501 1500 1500 1500 1500 1499 1499 1499 1498 1501 1501 1503 1503 1504 1505 1505 1504 1503 1504 1504 1503 1506 1506 1503 1504 1504 1506 1509 1512 1515 1515 1516 1517 1519 1520 1523
1509 1508 1506 1504 1503 1502 1502 1501 1500 1499 1498 1498 1498 1498 1498 1498 1497 1494 1495 1498 1500 1502 1504 1505 1505 1505 1504 1504 1505 1504 1506 1503 1502 1503 1503 1506 1509 1512 1513 1515 1514 1515 1518 1521 1523
1508 1506 1505 1503 1501 1500 1500 1499 1499 1498 1497 1497 1496 1496 1497 1498 1499 1494 1494 1495 1497 1501 1503 1505 1506 1506 1505 1503 1505 1505 1504 1504 1502 1502 1503 1505 1508 1510 1512 1513 1513 1514 1517 1519 1523
1507 1505 1503 1501 1500 1498 1498 1497 1497 1496 1496 1495 1495 1495 1496 1497 1494 1494 1494 1493 1496 1499 1503 1506 1507 1507 1506 1505 1504 1502 1502 1502 1501 1502 1505 1505 1507 1510 1509 1512 1511 1513 1517 1520 1523
1506 1503 1501 1500 1498 1497 1496 1495 1495 1494 1494 1494 1494 1494 1496 1496 1492 1493 1493 1493 1495 1499 1503 1505 1506 1507 1507 1506 1506 1503 1502 1501 1500 1502 1505 1506 1508 1511 1511 1511 1512 1513 1516 1520 1522
1504 1501 1499 1498 1496 1495 1493 1493 1494 1493 1492 1493 1493 1493 1494 1491 1491 1492 1494 1494 1496 1500 1502 1505 1506 1508 1507 1506 1505 1502 1500 1501 1502 1503 1505 1507 1510 1507 1510 1512 1513 1515 1517 1519 1521
1501 1499 1497 1495 1494 1493 1492 1492 1492 1492 1492 1492 1493 1493 1490 1488 1490 1492 1495 1496 1498 1500 1503 1504 1506 1507 1507 1506 1505 1505 1503 1510 1502 1504 1507 1506 1506 1506 1509 1511 1513 1514 1515 1517 1518
1499 1497 1495 1493 1492 1491 1490 1490 1490 1491 1491 1492 1493 1493 1488 1487 1488 1491 1494 1496 1498 1501 1503 1504 1505 1506 1506 1505 1506 1507 1515 1513 1507 1503 1505 1507 1508 1508 1509 1510 1510 1512 1514 1516 1518
1496 1494 1492 1491 1490 1489 1489 1489 1489 1490 1491 1492 1492 1495 1486 1486 1486 1489 1493 1496 1498 1501 1505 1505 1505 1506 1508 1504 1520 1520 1516 1512 1514 1504 1504 1506 1507 1509 1508 1508 1509 1511 1513 1514 1515
1494 1491 1488 1487 1487 1487 1488 1489 1492 1492 1488 1484 1485 1484 1483 1485 1486 1488 1492 1495 1497 1501 1502 1504 1503 1508 1508 1509 1510 1512 1515 1516 1505 1501 1503 1504 1504 1506 1506 1506 1507 1509 1511 1511 1513
1490 1488 1485 1484 1483 1484 1485 1485 1486 1487 1485 1481 1482 1482 1482 1484 1486 1487 1491 1495 1496 1499 1502 1504 1503 1504 1508 1510 1510 1511 1513 1512 1503 1500 1502 1508 1505 1504 1503 1503 1504 1506 1509 1509 1511
1487 1484 1482 1481 1480 1481 1481 1483 1484 1484 1485 1478 1478 1479 1481 1483 1484 1486 1489 1491 1494 1498 1499 1497 1498 1504 1506 1509 1509 1509 1512 1513 1513 1503 1505 1508 1506 1503 1500 1502 1502 1504 1505 1506 1507
1483 1480 1478 1478 1480 1478 1479 1481 1482 1484 1484 1476 1476 1476 1478 1480 1482 1482 1486 1490 1493 1495 1498 1496 1500 1500 1503 1507 1507 1514 1506 1506 1509 1511 1516 1506 1517 1502 1495 1495 1497 1499 1501 1502 1503
1478 1476 1474 1474 1474 1476 1479 1479 1481 1484 1490 1473 1474 1474 1474 1478 1477 1480 1483 1488 1490 1493 1496 1498 1499 1501 1504 1503 1504 1508 1506 1507 1505 1507 1508 1508 1516 1494 1500 1491 1487 1492 1495 1498 1500
1474 1470 1469 1469 1472 1475 1477 1479 1482 1485 1488 1470 1470 1472 1474 1475 1476 1479 1483 1486 1489 1492 1495 1496 1497 1496 1495 1500 1502 1501 1503 1506 1509 1506 1517 1508 1513 1496 1489 1484 1484 1487 1490 1493 1496
1468 1466 1465 1466 1471 1474 1476 1480 1481 1484 1469 1470 1468 1469 1470 1472 1475 1477 1480 1483 1487 1498 1499 1497 1495 1495 1497 1500 1502 1502 1505 1518 1519 1518 1517 1514 1517 1493 1479 1481 1483 1484 1487 1491 1494
1466 1464 1463 1466 1469 1473 1476 1479 1483 1472 1470 1464 1465 1468 1469 1469 1474 1477 1481 1485 1486 1486 1496 1501 1510 1494 1492 1494 1497 1501 1499 1512 1532 1524 1512 1515 1510 1490 1480 1480 1480 1482 1484 1489 1492
1464 1464 1464 1466 1469 1472 1476 1476 1470 1470 1467 1466 1465 1468 1470 1469 1470 1474 1478 1479 1479 1482 1490 1498 1500 1488 1489 1489 1490 1501 1505 1497 1509 1522 1517 1505 1497 1482 1476 1477 1479 1480 1482 1486 1490
1464 1465 1466 1467 1470 1474 1475 1478 1472 1470 1468 1465 1467 1465 1468 1467 1469 1472 1478 1472 1476 1478 1479 1488 1499 1485 1484 1487 1490 1488 1493 1502 1504 1521 1522 1505 1508 1492 1474 1471 1473 1475 1477 1482 1488
1465 1466 1468 1470 1472 1474 1473 1473 1471 1469 1468 1466 1465 1464 1463 1465 1465 1470 1470 1470 1469 1476 1480 1484 1489 1491 1488 1484 1484 1493 1494 1500 1499 1501 1508 1513 1495 1471 1469 1466 1467 1470 1474 1478 1485
1465 1467 1470 1471 1474 1475 1471 1471 1471 1467 1467 1464 1464 1461 1460 1461 1465 1467 1465 1461 1463 1468 1477 1479 1483 1493 1485 1479 1483 1483 1483 1485 1495 1506 1507 1506 1488 1464 1467 1468 1467 1467 1472 1478 1483
1466 1469 1471 1471 1469 1470 1471 1470 1469 1466 1464 1463 1461 1460 1460 1460 1465 1463 1462 1462 1463 1464 1470 1477 1483 1496 1488 1483 1486 1482 1482 1483 1487 1491 1497 1498 1481 1465 1465 1465 1464 1465 1469 1475 1479
1467 1468 1472 1471 1471 1470 1469 1468 1468 1464 1464 1463 1461 1459 1459 1460 1461 1461 1460 1461 1462 1463 1465 1467 1476 1479 1487 1477 1473 1481 1481 1484 1481 1488 1487 1483 1469 1459 1459 1462 1463 1463 1466 1469 1475
1467 1468 1468 1467 1468 1470 1470 1469 1467 1464 1462 1461 1459 1458 1458 1461 1460 1458 1459 1460 1462 1463 1465 1465 1472 1473 1467 1469 1473 1471 1474 1482 1482 1475 1481 1467 1472 1457 1459 1462 1460 1462 1465 1466 1470
1468 1469 1468 1468 1469 1469 1471 1465 1463 1462 1462 1459 1460 1457 1457 1458 1456 1457 1457 1458 1456 1464 1464 1467 1467 1472 1470 1466 1469 1471 1468 1469 1472 1474 1474 1471 1467 1457 1459 1460 1461 1461 1463 1468 1469
1469 1469 1470 1467 1467 1467 1464 1462 1462 1463 1461 1461 1460 1459 1459 1460 1460 1460 1460 1461 1460 1459 1461 1464 1466 1472 1470 1465 1473 1480 1463 1461 1462 1461 1461 1468 1454 1459 1456 1457 1458 1460 1463 1466 1468
Wind_Speed
11 10 9 8 7 7 6 6 5 5 6 6 7 9 10 11 12 15 14 7 4 9 8 5 5 11 5 3 2 2 3 3 6 6 1 5 5 2 3 4 4 3 3 6 24
13 11 9 8 8 7 7 6 5 5 6 6 6 7 8 9 12 16 11 10 9 7 5 5 5 10 2 2 0 1 1 4 3 6 4 10 8 5 4 5 4 5 6 18 25
14 13 11 9 9 8 8 7 6 5 5 6 6 6 6 6 7 4 8 12 16 13 8 4 4 7 3 1 2 1 1 2 2 8 4 10 8 6 6 5 10 12 17 23 25
14 14 13 11 9 9 8 8 7 6 5 6 7 7 5 3 2 4 5 10 17 17 10 6 1 4 4 4 3 2 2 5 2 6 6 8 6 4 10 2 1 14 17 25 26
15 14 13 12 10 9 8 8 8 7 6 6 7 7 5 5 6 3 3 7 15 19 13 8 3 1 3 5 6 2 2 0 5 9 7 5 6 4 8 8 8 12 19 22 23
15 14 14 13 11 9 8 9 8 8 7 6 7 7 6 4 4 4 1 6 13 18 14 11 4 2 1 2 2 5 7 6 4 8 10 8 3 5 1 4 8 14 18 21 24
15 15 14 13 11 10 8 8 8 8 7 6 7 7 9 10 3 7 4 5 12 14 14 11 7 1 3 3 5 6 4 4 1 10 6 10 3 10 4 8 11 14 16 19 22
16 15 14 13 11 9 9 7 7 6 6 6 7 6 8 4 9 10 6 7 12 12 9 10 6 1 1 7 0 2 3 2 2 8 3 12 9 7 11 13 13 14 16 17 21
17 16 14 13 11 9 7 6 4 4 5 6 6 6 6 3 7 12 9 6 10 12 9 10 6 2 3 2 3 7 2 4 4 9 4 11 5 0 11 12 13 15 15 16 17
17 17 15 13 10 7 5 3 2 4 6 5 7 4 6 3 7 11 12 9 10 14 8 4 3 2 1 1 3 2 3 4 4 2 8 10 5 3 12 14 14 14 15 16 17
18 17 16 13 9 6 5 4 3 4 12 8 3 3 2 3 6 12 15 12 13 8 5 3 6 9 5 6 6 3 1 5 3 2 2 7 8 8 12 14 14 16 17 18 18
19 18 16 14 9 6 7 6 5 2 6 15 19 16 10 2 2 10 16 8 6 10 6 6 12 5 6 5 3 0 6 4 0 8 1 2 6 6 11 16 17 16 16 20 17
20 19 16 13 8 8 11 10 8 3 3 4 9 13 14 9 5 11 18 9 7 7 7 11 9 12 5 3 3 3 5 2 5 9 2 4 5 6 7 13 12 12 13 15 16
21 19 16 10 5 8 9 12 8 4 2 3 5 4 10 8 5 13 20 11 3 10 7 4 5 12 7 5 2 6 3 5 6 3 4 2 4 5 7 12 10 13 14 14 13
22 21 15 7 4 9 10 7 9 7 3 4 4 4 11 8 9 9 20 12 9 6 6 8 10 10 8 6 3 4 2 6 5 3 3 4 4 3 3 10 14 15 16 15 11
23 18 10 8 11 10 12 12 10 3 3 4 5 7 9 4 3 7 8 11 6 5 2 4 2 5 14 5 7 6 3 3 1 1 4 1 4 7 5 6 2 12 16 14 11
19 9 6 9 11 15 8 14 3 3 1 5 4 7 9 8 5 8 13 13 8 9 9 7 6 3 3 5 3 3 3 3 4 4 6 2 3 8 8 8 7 6 17 15 13
9 4 4 11 16 15 14 3 4 1 2 2 2 8 9 9 3 4 13 13 2 3 5 11 10 10 8 11 5 6 5 4 5 5 3 1 5 6 5 8 9 7 14 16 14
5 3 6 12 16 14 7 4 2 2 2 4 4 7 5 4 4 6 11 16 14 8 6 10 7 2 6 6 9 6 5 1 3 1 3 2 6 11 8 9 7 7 12 18 17
4 7 4 15 11 12 3 2 1 2 4 2 2 2 6 12 8 9 9 10 12 13 6 5 6 5 4 5 4 3 7 3 2 4 10 5 5 9 9 8 12 12 15 20 18
5 4 4 13 7 3 5 3 3 5 4 3 1 1 3 7 7 9 11 4 13 13 11 7 2 5 3 8 11 4 4 2 1 2 6 8 7 6 11 10 11 16 18 22 20
3 2 11 3 3 1 3 2 1 3 4 5 3 5 3 5 6 8 14 5 11 19 13 11 6 9 10 1 2 1 4 7 4 4 2 4 10 3 6 7 10 13 19 17 21
4 5 7 3 3 2 2 2 3 3 3 2 3 5 2 3 3 6 7 1 11 15 17 10 7 5 4 5 3 6 5 6 2 1 8 8 12 3 1 6 8 10 15 17 24
2 3 2 3 1 0 1 1 3 4 5 4 4 2 2 3 1 5 4 2 2 11 9 21 6 11 11 9 4 6 7 8 8 4 2 11 16 15 7 7 8 11 13 20 23
2 2 1 3 3 3 2 1 3 2 4 4 2 5 4 3 2 3 1 4 4 2 6 10 11 12 16 11 7 5 7 10 11 6 7 7 8 12 5 7 14 12 13 18 23
2 2 1 1 1 4 2 3 5 3 3 2 4 0 5 4 2 4 3 3 2 3 6 4 9 8 11 12 13 15 11 9 11 6 13 11 13 4 4 3 8 15 16 17 21
4 2 1 1 2 3 3 3 1 2 1 2 3 1 1 1 1 3 3 3 2 3 5 6 6 6 8 7 7 8 16 15 7 8 9 9 6 1 4 5 11 16 17 17 20
Wind_Direction
342 338 332 324 327 326 328 331 316 286 272 262 258 260 265 267 264 262 257 240 236 235 246 276 322 333 4 83 85 110 95 145 149 172 185 207 186 177 152 129 140 148 131 185 164
340 337 331 324 317 316 318 322 322 300 274 264 264 266 268 275 274 261 253 231 224 221 228 265 321 353 65 85 31 33 120 201 192 175 195 184 191 166 176 188 182 117 139 155 161
344 338 335 325 315 309 309 311 315 306 281 262 255 266 280 295 302 246 226 219 217 213 221 241 322 356 14 31 84 27 58 165 199 207 216 171 193 181 191 206 211 187 157 163 166
347 338 333 327 317 308 300 301 303 306 281 258 249 258 279 286 208 185 229 220 204 209 200 197 258 355 352 11 16 330 192 254 310 205 192 182 163 195 213 197 268 220 187 172 174
346 339 331 327 320 310 294 292 297 299 276 250 241 247 265 265 247 198 283 223 197 201 189 184 158 81 358 340 333 215 350 128 265 186 206 163 190 202 246 256 303 168 176 180 180
343 338 330 322 319 313 288 286 290 292 275 246 235 243 253 261 208 191 51 164 183 189 180 182 143 58 68 310 310 311 297 279 190 179 186 191 213 210 164 179 150 162 173 181 190
339 337 330 321 314 308 295 277 283 288 268 241 232 236 256 244 206 179 128 114 161 174 176 173 163 102 330 297 316 301 348 128 171 181 176 158 226 227 164 162 163 171 178 188 197
335 334 329 321 312 305 296 280 282 273 247 225 231 237 250 229 219 189 159 131 151 165 162 177 179 205 339 295 203 52 52 23 358 165 182 189 259 194 170 176 178 186 191 198 206
332 329 326 319 310 302 288 278 272 246 224 213 223 232 264 208 203 191 176 157 160 155 163 156 144 79 358 3 86 31 47 8 355 187 149 204 301 203 182 194 194 199 204 211 212
329 326 322 317 306 298 278 249 206 215 206 213 230 260 245 158 172 176 175 145 143 157 152 152 101 110 41 329 161 37 15 349 302 18 207 203 238 203 197 209 214 215 214 220 220
326 323 319 315 303 285 235 173 195 232 215 205 208 237 121 105 163 167 173 160 140 146 170 188 181 205 146 90 128 113 333 309 286 79 173 210 242 221 204 216 220 222 220 228 228
324 321 316 312 297 262 213 199 199 163 288 241 243 243 239 239 138 166 166 157 154 168 149 169 196 168 151 149 134 96 311 335 329 55 346 223 231 235 218 227 227 229 230 234 232
322 319 316 311 285 242 213 200 193 286 278 267 228 239 240 239 214 186 170 151 146 158 179 196 172 153 164 146 343 316 301 307 339 338 91 169 257 241 234 240 238 235 243 237 236
320 316 314 304 259 221 198 201 209 215 302 188 204 217 189 184 202 181 182 166 148 183 162 181 153 198 216 253 301 296 236 323 301 269 270 235 285 256 236 252 239 234 223 229 228
317 314 305 251 217 175 172 188 179 159 217 136 156 171 169 185 136 182 174 181 168 158 191 166 170 163 201 232 178 262 223 288 319 217 234 204 251 265 303 269 248 217 214 214 214
318 311 287 226 206 169 155 151 136 198 214 147 134 169 164 197 131 130 167 172 138 130 177 146 183 194 232 191 194 280 269 41 108 210 257 171 254 273 247 246 280 209 203 202 199
322 313 260 191 173 166 161 152 175 215 340 152 160 166 176 169 125 157 173 174 173 174 181 186 179 150 175 209 175 199 248 259 224 217 278 84 221 259 260 257 250 233 205 198 191
330 336 192 170 164 169 158 199 195 140 290 4 121 155 186 166 114 140 163 180 129 142 152 188 210 210 182 220 213 189 234 245 258 246 326 187 238 250 294 310 244 234 211 195 190
347 94 138 159 159 167 168 206 190 173 344 334 125 155 169 173 179 162 186 195 192 187 181 181 222 182 205 183 192 160 202 49 143 120 256 269 266 278 267 250 218 210 196 192 193
102 103 98 155 150 159 201 254 244 240 322 323 116 211 168 177 176 189 177 189 201 202 204 177 203 201 150 169 67 255 134 194 216 241 270 255 272 266 277 260 222 217 204 195 192
129 90 107 147 142 164 202 232 262 258 276 348 311 245 148 170 186 185 190 191 206 185 209 174 275 149 198 202 188 148 184 91 189 250 278 288 278 224 256 266 245 222 208 197 188
103 96 139 160 178 17 201 206 277 269 266 267 255 245 214 166 174 196 204 241 191 159 181 188 208 233 231 215 3 297 275 210 244 211 235 305 270 200 266 286 266 238 213 196 195
91 103 181 31 214 187 232 252 266 269 265 237 265 226 190 185 174 210 191 49 163 169 173 169 213 202 215 189 134 212 190 214 203 211 228 256 264 124 252 260 242 220 205 197 202
120 134 172 236 155 193 174 252 262 246 249 259 279 263 227 200 155 188 205 112 121 207 177 167 179 216 227 227 198 196 187 188 218 210 239 244 273 287 279 254 217 206 199 199 202
36 84 150 191 208 193 241 286 242 274 217 228 240 234 205 189 182 174 150 136 97 66 153 187 215 204 234 229 219 227 184 187 213 217 237 305 228 262 314 278 228 207 198 193 193
40 10 7 145 149 159 192 233 234 252 249 193 252 203 191 217 246 171 161 217 159 124 157 188 215 202 239 232 228 244 248 238 234 212 248 257 273 278 298 303 211 202 203 206 199
23 23 12 131 168 203 215 226 214 3 229 317 335 302 127 108 348 47 91 87 85 182 152 175 187 175 241 212 184 241 236 225 209 208 232 227 272 322 282 236 211 212 212 210 200